Weather in Yelovatka

Russia / Saratov Oblast     51°07′01″N   43°39′28″E
temp.,
°C
wind,
m/s
gust,
m/s
humid.,
%
clouds,
%
prec.,
mm/h
press.,
hPa
HPBL,
m
12 may, wed
wed1201:00+7ne337798 0.0 102425
04:00+6ne3684100 0.0 1024104
07:00+8ne4982100 0.0 1022225
10:00+12ene447286 0.0 1021585
13:00+13ne327697 0.0 1020633
16:00+15e226730 0.0 1019983
19:00+15ene33725 0.0 1020241
22:00+11ene46926 0.0 102097
13 may, thu
thu1301:00+10ene35915 0.0 102068
04:00+9ne359243 0.0 101977
07:00+12ne3693100 0.0 1017139
10:00+16ese238234 0.0 1017351
13:00+21s34636 0.0 10161131
16:00+23s565485 0.1 10161953
19:00+21sw226859 0.1 101633
22:00+17ne127336 0.1 101811
14 may, fri
fri1401:00+15e228493 0.0 101819
04:00+14e448585 0.0 101860
07:00+16e3683100 0.0 1018135
10:00+21se57660 0.0 1017559
13:00+25sse67535 0.0 10171077
16:00+27sse69495 0.0 10171511
19:00+24se3763100 0.0 1016142
22:00+19se5146899 0.0 1016244
15 may, sat
sat1501:00+18sse5165342 0.0 1016323
04:00+16se5154916 0.0 1016298
07:00+16se516575 0.0 1017309
10:00+22se714495 0.0 1016570
13:00+26sse7113626 0.0 10161219
16:00+28sse712405 0.0 10151931
19:00+24se5125275 0.0 1014278
22:00+19se5146136 0.0 1014216
16 may, sun
sun1601:00+18se514565 0.0 1014246
04:00+16sse4116340 0.0 1014169
07:00+16sse31068100 0.0 1015195
10:00+22sse59515 0.0 1015450
13:00+27sse68375 0.0 10151405
16:00+28sse59375 0.0 10141965
19:00+27se22515 0.0 101315
22:00+20ese46625 0.0 101371